Lübeck Blankensee Airport

Jump to: basic info | weather | frequencies | runways | comments

Related pages: nearby airports | nearby navaids | notams | map

Basic information (top)

Codes: LBC EDHL
Location: lon 53.805401, lat 10.719200, elev 53 ft / 16 m msl
Status: medium_airport
Scheduled airline service: yes
Links: Wikipedia Mobile

Weather (top)

Current conditions (rec'd 2014/11/23 16:20Z):

EDHL 231620Z 15007KT 110V190 CAVOK 07/05 Q1018 RMK ATIS WHI

Airport forecast for Hamburg Airport 28nm (52km) WSW (rec'd 2014/11/23 12:27Z):

TAF EDDH 231100Z 2312/2418 14010KT 8000 FEW040 
      BECMG 2321/2323 20008KT 
      BECMG 2323/2402 26008KT 4000 -RA BKN012 
      TEMPO 2401/2408 2500 RADZ BKN004 
      BECMG 2408/2410 9999 SCT025

Frequencies (top)

Verify before use: may be inaccurate or out of date.

AFIS: 125.1 MHz (BREMEN INFO)
ATIS: 119.925 MHz (ATIS)
GND: 121.775 MHz (GND)
INFO: 128.7 MHz (INFO)
RDR: 124.225 MHz (BREMEN RADAR)
TWR: 128.7 MHz (TWR)

Runways (top)

07/25: 6,896 x 197 ft (2,102 x 60 m) — paved — lighted — threshold 07 displaced 984 ft (300 m)

Latest comments (top)

No comments yet for Lübeck Blankensee Airport

More... (top)

See also NOTAMs and nearby airports and navaids, or visit the Lübeck Blankensee Airport page at the main OurAirports website..